Reykjavik, Iceland

7:54 PM GMT on February 19, 2017 (GMT +0000)
Reykjavik

Weather History for BIRK - October, 2012

Change the Weather History Date:

Tuesday, October 16, 2012

  Actual Average Record
Temperature  
Mean Temperature 38 °F -  
Max Temperature 43 °F 44 °F 55 °F (2005)
Min Temperature 32 °F 36 °F 28 °F (1998)
Degree Days  
Heating Degree Days 28    
Moisture  
Dew Point 27 °F    
Average Humidity 71    
Maximum Humidity 81    
Minimum Humidity 53    
Precipitation  
Precipitation 0.00 in - - ()
Sea Level Pressure  
Sea Level Pressure 29.87 in    
Wind  
Wind Speed 2 mph ()    
Max Wind Speed 10 mph    
Max Gust Speed -    
Averages and records for this station are not official NWS values.
T = Trace of Precipitation, MM = Missing Value Source: Averaged Metar Reports

Daily Weather History Graph

Daily Weather History Graph

Search for Another Location

Airport or City:

Trip Planner

Search our weather history database for the weather conditions in past years. The results will help you decide how hot, cold, wet, or windy it might be!

Date:

Astronomy

Oct. 16, 2012 Rise Set
Actual Time 8:21 AM GMT 6:02 PM GMT
Civil Twilight 7:32 AM GMT 6:51 PM GMT
Nautical Twilight 6:37 AM GMT 7:46 PM GMT
Astronomical Twilight 5:41 AM GMT 8:42 PM GMT
Moon 10:17 AM GMT (10/16) 5:46 PM GMT (10/16)
Length of Visible Light 11h 18m
Length of Day
9h 40m
New Moon, 1% of the Moon is Illuminated
Oct 16
New Moon
Oct 22
First Quarter
Oct 29
Full
Nov 7
Last Quarter
Nov 13
New

Hourly Weather History & Observations

Time (GMT) Temp. Windchill Dew Point Humidity Pressure Visibility Wind Dir Wind Speed Gust Speed Precip Events Conditions
12:00 AM 35 °F - 29 °F 71% 29.92 in 47 mi East 1.2 mph - -  
12:00 AM 32.0 °F - 26.6 °F 80% 29.89 in - Calm Calm - N/A   Clear
1:00 AM 32.0 °F - 24.8 °F 75% 29.89 in - Variable 1.2 mph - N/A   Clear
2:00 AM 32.0 °F 28.7 °F 26.6 °F 80% 29.89 in - SSE 3.5 mph - N/A   Clear
3:00 AM 32.0 °F - 24.8 °F 75% 29.86 in - Variable 2.3 mph - N/A   Clear
4:00 AM 32.0 °F - 26.6 °F 80% 29.83 in - ESE 2.3 mph - N/A   Clear
5:00 AM 32.0 °F - 26.6 °F 80% 29.86 in - Variable 1.2 mph - N/A   Clear
6:00 AM 33 °F - 26 °F 65% 29.87 in 47 mi East 4.6 mph - -   Scattered Clouds
6:00 AM 32.0 °F 28.7 °F 26.6 °F 80% 29.86 in - Variable 3.5 mph - N/A   Clear
7:00 AM 32.0 °F - 24.8 °F 75% 29.86 in - Variable 2.3 mph - N/A   Clear
8:00 AM 32.0 °F - 24.8 °F 75% 29.86 in - Variable 1.2 mph - N/A   Clear
9:00 AM 32.0 °F 28.7 °F 24.8 °F 75% 29.86 in - Variable 3.5 mph - N/A   Clear
10:00 AM 35.6 °F 30.7 °F 24.8 °F 65% 29.86 in - East 5.8 mph - N/A   Clear
11:00 AM 37.4 °F - 24.8 °F 60% 29.86 in - Variable 2.3 mph - N/A   Clear
12:00 PM 40 °F - 29 °F 55% 29.90 in 47 mi West 1.2 mph - -   Scattered Clouds
12:00 PM 41.0 °F - 26.6 °F 57% 29.89 in - Variable 1.2 mph - N/A   Clear
1:00 PM 41.0 °F - 24.8 °F 53% 29.89 in - Variable 2.3 mph - N/A   Clear
2:00 PM 41.0 °F 39.0 °F 30.2 °F 65% 29.86 in - Variable 3.5 mph - N/A   Clear
3:00 PM 42.8 °F 37.5 °F 28.4 °F 57% 29.86 in - North 9.2 mph - N/A   Clear
4:00 PM 41.0 °F 34.7 °F 30.2 °F 65% 29.86 in - SE 10.4 mph - N/A   Clear
5:00 PM 41.0 °F 37.1 °F 30.2 °F 65% 29.86 in - SE 5.8 mph - N/A   Clear
6:00 PM 39 °F - 33 °F 70% 29.88 in 47 mi East 1.2 mph - -   Clear
6:00 PM 39.2 °F - 30.2 °F 70% 29.86 in - NE 1.2 mph - N/A   Clear
7:00 PM 37.4 °F - 28.4 °F 70% 29.86 in - NE 1.2 mph - N/A   Clear
8:00 PM 35.6 °F 30.7 °F 30.2 °F 81% 29.86 in - ESE 5.8 mph - N/A   Clear
9:00 PM 35.6 °F - 28.4 °F 75% 29.83 in - Variable 2.3 mph - N/A   Clear
10:00 PM 33.8 °F 27.0 °F 28.4 °F 81% 29.83 in - NNE 8.1 mph - N/A   Clear
11:00 PM 33.8 °F 30.8 °F 26.6 °F 75% 29.83 in - NW 3.5 mph - N/A   Clear